Flag for Iran Weather past 2 weeks in Esfahãn, Iran

Now
52 °F

Sunny.


Feels Like: 51 °F
Forecast: 40 / 79 °F
Wind: 5 mph from Northeast

Location: Esfahan

Current Time: Oct 23, 2014 at 9:30:47 AM

Latest Report: Oct 23, 2014 at 8:30 AM


Visibility: 4 mi

Pressure: 30.27 "Hg

Humidity: 47%

Dew point: 32 °F

Location of EsfahãnLocation

Historic Weather in Esfahãn — Graph

°F

Esfahãn temperature yesterday

Maximum temperature yesterday: 72 °F (at 3:00 PM)
Minimum temperature yesterday: 45 °F (at 5:30 AM)
Average temperature yesterday: 58 °F

Past Weeks' High & Low Weather Summary

 TemperatureHumidityPressure
High82 °F (Oct 15, 2:30 PM)81% (Oct 18, 6:00 AM)30.30 "Hg (Oct 18, 6:00 AM)
Low36 °F (Oct 23, 6:00 AM)8% (Oct 10, 3:00 PM)29.92 "Hg (Oct 18, 2:00 PM)
Average61 °F35%30.14 "Hg
* Reported Oct 8 8:30 AM — Oct 23 8:30 AM, Esfahãn, Weather by CustomWeather, © 2014

Note: Actual official high and low records may vary slightly from our data, if they occured in-between our weather recording intervals... More about our weather records

Advertising

Esfahãn weather history for previous 24 hours

 ConditionsComfort  
Time TempWeatherWind HumidityBarometerVisibility
8:30 AM
Oct 23
52 °FSunny.5 mph47%30.27 "Hg4 mi
8:00 AM48 °FSunny.7 mph50%30.27 "Hg5 mi
7:30 AM43 °FSunny.5 mph61%30.24 "Hg5 mi
7:00 AM37 °FSunny.5 mph70%30.21 "Hg4 mi
6:30 AM36 °FClear.5 mph70%30.21 "Hg4 mi
6:00 AM36 °FClear.No wind70%30.21 "Hg5 mi
5:30 AM37 °FClear.5 mph70%30.21 "Hg4 mi
5:00 AM39 °FClear.5 mph65%30.21 "Hg4 mi
4:30 AM41 °FClear.5 mph61%30.21 "Hg4 mi
4:00 AM39 °FClear.No wind70%30.21 "Hg4 mi
3:30 AM41 °FClear.5 mph66%30.21 "Hg10 mi
3:00 AM41 °FClear.7 mph61%30.18 "Hg10 mi
2:30 AM43 °FClear.5 mph57%30.18 "Hg10 mi
2:00 AM43 °FClear.7 mph57%30.18 "Hg10 mi
1:30 AM43 °FClear.7 mph57%30.18 "Hg10 mi
1:00 AM43 °FClear.9 mph53%30.18 "Hg10 mi
12:30 AM46 °FClear.9 mph50%30.18 "Hg10 mi
12:00 AM50 °FClear.5 mph47%30.18 "Hg10 mi
11:30 PM
Oct 22
52 °FClear.7 mph44%30.18 "Hg10 mi
11:00 PM52 °FClear.7 mph47%30.18 "Hg10 mi
10:30 PM52 °FClear.9 mph47%30.18 "Hg10 mi
10:00 PM57 °FClear.9 mph39%30.18 "Hg10 mi
9:30 PM55 °FClear.7 mph41%30.18 "Hg10 mi
9:00 PM57 °FClear.9 mph39%30.15 "Hg10 mi
8:30 PM59 °FClear.12 mph36%30.15 "Hg10 mi
8:00 PM59 °FClear.12 mph34%30.15 "Hg10 mi
7:30 PM61 °FClear.12 mph34%30.12 "Hg10 mi
7:00 PM61 °FClear.9 mph34%30.12 "Hg10 mi
6:30 PM63 °FClear.9 mph32%30.12 "Hg10 mi
6:00 PM64 °FClear.7 mph28%30.12 "Hg10 mi
5:30 PM66 °FSunny.12 mph24%30.12 "Hg10 mi
5:00 PM68 °FSunny.14 mph21%30.09 "Hg10 mi
4:30 PM70 °FSunny.14 mph20%30.09 "Hg10 mi
4:00 PM70 °FSunny.12 mph21%30.09 "Hg10 mi
3:30 PM70 °FSunny.14 mph21%30.09 "Hg10 mi
3:00 PM72 °FSunny.21 mph19%30.09 "Hg10 mi
2:30 PM70 °FSunny.21 mph18%30.09 "Hg10 mi
2:00 PM70 °FSunny.18 mph20%30.09 "Hg10 mi
1:30 PM70 °FSunny.16 mph21%30.09 "Hg10 mi
1:00 PM68 °FSunny.16 mph21%30.09 "Hg10 mi
12:30 PM66 °FSunny.16 mph22%30.12 "Hg10 mi
12:00 PM64 °FSunny.14 mph24%30.12 "Hg10 mi
11:30 AM63 °FSunny.12 mph25%30.15 "Hg10 mi
11:00 AM63 °FSunny.16 mph25%30.15 "Hg10 mi
10:30 AM61 °FSunny.14 mph31%30.15 "Hg10 mi
10:00 AM57 °FSunny.16 mph33%30.18 "Hg10 mi
9:30 AM55 °FSunny.16 mph41%30.15 "Hg10 mi
9:00 AM55 °FSunny.22 mph44%30.15 "Hg10 mi
Weather by CustomWeather, © 2014

See weather overviewHow to use our weather pages